Borzja, Russia
Current Conditions -  °F | °C
As of 9:30 AM on Tuesday 21 Oct 2014 (Local Time) from UIAA Reporting Station
Few Clouds Few Clouds  
Wind Chill:   Ceiling: Unl
Heat Index:   Visibility: 6mi
Dew Point:   Wind: 2mph
Humidity: 78%   Direction: NA
Pressure: 30.24"   Gusts: NA
Location:  50.38°N, 116.52°E
Report Text: UIAA 210030Z VRB01MPS 9999 FEW200 M15/M18 Q1024 NOSIG RMKQFE709 29820260
Loading
Personal Weather Stations






























Interactive Weather Map
Tropical Storm Tracking
New forecast layout! Learn more

10-Day Weather Forecast

Advertisements
Track Severe Weather on mobile